Regional Weather Roundup
Issued by NWS Northern Indiana

Home | Current Version | Previous Version | Text Only | Print | Product List | Glossary Off
Versions: 1 2 3 4 5 6 7 8 9 10 11 12 13 14 15 16 17 18 19 20 21 22 23 24 25 26 27 28 29 30 31 32 33 34 35 36 37 38 39 40 41 42 43 44 45 46 47 48 49 50

000
ASUS43 KIWX 211901
RWRIWX

KIWX WEATHER ROUNDUP
NATIONAL WEATHER SERVICE NORTHERN INDIANA
300 PM EDT FRI JUL 21 2017

NOTE: "FAIR" INDICATES FEW OR NO CLOUDS BELOW 12,000 FEET WITH NO
SIGNIFICANT WEATHER AND/OR OBSTRUCTIONS TO VISIBILITY.

* THESE STATIONS ARE NOT UNDER NWS QUALITY CONTROL. THEY ALSO MAY NOT
  REPORT WEATHER SUCH AS PRECIPITATION OR FOG.

INZ001>027-212000-
NORTHERN INDIANA

CITY           SKY/WX    TMP DP  RH WIND       PRES   REMARKS
GARY*          PTSUNNY   88  66  48 SE8       29.98F
MICHIGAN CITY* PTSUNNY   86  70  58 SE6       29.98F
SOUTH BEND     PTSUNNY   86  68  54 S10       29.98F
ELKHART*       MOSUNNY   86  63  45 SW9       29.99F
GOSHEN         SUNNY     85  65  51 CALM      30.00F
MONTICELLO*    CLOUDY    80  74  83 SE6       30.00S
FORT WAYNE     PTSUNNY   85  69  58 SW7       30.01F
PERU/GRISSOM   LGT RAIN  73  73 100 E9        30.00F

$$
INZ028>050-212000-
CENTRAL INDIANA

CITY           SKY/WX    TMP DP  RH WIND       PRES   REMARKS
LAFAYETTE      CLOUDY    83  74  74 CALM      29.99F
KOKOMO*        LGT RAIN  74  70  87 E7        30.03F
MUNCIE*        CLOUDY    84  72  67 NW8       30.03R
INDIANAPOLIS   MOSUNNY   89  73  59 VRB6      30.00F HX  97

$$
MIZ043>046-050>051-056>058-064>065-071>073-077>080-212000-
SOUTHWEST LOWER MICHIGAN

CITY           SKY/WX    TMP DP  RH WIND       PRES   REMARKS
BATTLE CREEK   MOSUNNY   86  66  51 VRB6      30.00F
BENTON HARBOR  MOSUNNY   87  66  49 SE7       29.97F
COLDWATER*     SUNNY     84  66  53 S5        30.00F
HILLSDALE*     CLOUDY    86  64  48 SW7       30.00F
HOLLAND        MOSUNNY   85  69  58 MISG      29.98F
GRAND RAPIDS   PTSUNNY   84  69  60 S8        29.98F
KALAMAZOO      MOSUNNY   87  63  44 S7        29.99F
STURGIS*       MOSUNNY   84  68  59 S3        29.99F
THREE RIVERS*  FAIR      84  64  50 CALM      30.00F

$$
OHZ001>008-015>018-024>025-212000-
NORTHWEST OHIO

CITY           SKY/WX    TMP DP  RH WIND       PRES   REMARKS
DEFIANCE       CLOUDY   N/A N/A N/A SE5       29.99F
FINDLAY        MOSUNNY   88  68  51 SE3       29.97F
TOLEDO EXPRESS SUNNY     87  65  47 E7        29.97F
TOLEDO METCALF MOSUNNY   86  69  56 E8        29.98F
LIMA           CLOUDY    84  71  65 NW3       30.01F

$$
AND FOR LAKE MICHIGAN COASTAL AND OPEN LAKE BUOY OBSERVATIONS

STATION/POSITION TEMP    WIND        PRES    VSBY  WAVE
                 AIR SEA DIR/SP/G                  HT/PER
                 (F)     (DEG/KT/KT) (MB)    (MI)  (FT/S)
CALUMET HARBOR    77      50/  7/  7 1014.7F
MICHIGAN CITY     81     350/  1/  2   N/A
BURNS HARBOR      77     360/  5/  6 1015.2F
SAINT JOSEPH      78     310/  2/  3 1016.9
SOUTH LAKE BUOY   73 73  170/  6/  6 1015.6          0
4 MI NW BRIDGMAN  76 77  360/  6/  6 1014.6F         0
MICHIGAN CITY     77 78   80/  2/  4   N/A           0

$$
&&



USA.gov is the U.S. government's official web portal to all federal, state and local government web resources and services.